#timestamp,LO_Frequency,Hit,StdDev 
1558605615.7,286046998.5,N
1558605635.6,286046999.5,N
1558605655.4,286046998.6,N
1558605675.2,286046997.9,N
1558605695.1,286046996.9,N
1558605696.0,286046996.9,N
1558605715.8,286046999.4,N
1558605735.6,286046999.0,N
1558605755.5,286046999.3,N
1558605775.3,286046998.6,N
1558605795.2,286046998.3,N
1558605815.9,286046996.5,N
1558605835.7,286046999.5,N
1558605855.6,286046997.0,N
1558605875.4,286046998.9,N
1558605895.2,286047000.2,N
1558605915.1,286047002.2,N
1558605916.0,286047002.2,N
1558605935.8,286047000.9,N
1558605955.7,286047002.8,N
1558605975.5,286047001.5,N
1558605995.3,286047000.3,N
1558606015.2,286047000.0,N
1558606035.0,286047002.6,N
1558606035.9,286047002.6,N
1558606055.7,286047004.0,N
1558606075.6,286046999.9,N
1558606095.4,286046998.1,N
1558606115.3,286047000.6,N
1558606135.1,286047001.8,N
1558606155.8,286047001.3,N
1558606175.7,286047002.6,N
1558606195.5,286047001.8,N
1558606215.3,286047002.4,N
1558606235.2,286047001.0,N
1558606255.0,286047001.2,N
1558606255.9,286047001.2,N
1558606275.8,286046999.6,N
1558606295.6,286046997.4,N
1558606315.4,286046996.8,N
1558606335.3,286046999.1,N
1558606355.1,286046998.6,N
1558606375.9,286046999.0,N
1558606395.7,286046998.6,N
1558606415.5,286046999.1,N
1558606435.4,286046995.4,N
1558606455.2,286046997.3,N
1558606475.0,286046997.1,N
1558606475.9,286046997.1,N
1558606495.8,286046999.1,N
1558606515.6,286046999.2,N
1558606535.5,286046998.9,N
1558606555.3,286046998.3,N
1558606575.1,286046998.5,N
1558606595.9,286046998.5,N
1558606615.7,286046998.1,N
1558606635.5,286047001.9,N
1558606655.4,286047001.5,N
1558606675.2,286047003.9,N
1558606695.0,286047003.6,N
1558606695.9,286047003.6,N
1558606715.8,286047004.3,N
1558606735.6,286047003.5,N
1558606755.5,286047003.5,N
1558606775.3,286047002.1,N
1558606795.1,286047001.0,N
1558606815.9,286047002.5,N
1558606835.7,286046998.1,N
1558606855.5,286047000.0,N
1558606875.4,286047003.9,N
1558606895.2,286047002.7,N
1558606915.1,286046999.7,N
1558606916.0,286046999.7,N
1558606935.8,286047000.8,N
1558606955.6,286046998.5,N
1558606975.2,286047000.4,N
1558606995.0,286047002.4,N
1558606995.9,286047002.4,N
1558607015.8,286047001.4,N
1558607035.8,286047001.3,N
1558607055.6,286047002.2,N
1558607075.5,286047000.5,N
1558607095.3,286047000.0,N
1558607115.1,286047000.8,N
1558607135.9,286047000.9,N
1558607155.7,286046998.6,N
1558607175.5,286047000.5,N
1558607195.3,286047001.0,N
1558607215.1,286047000.2,N
1558607235.9,286046998.1,N
1558607255.7,286047000.7,N
1558607275.6,286047000.7,N
1558607295.4,286047000.6,N
1558607315.2,286046998.7,N
1558607335.9,286046998.6,N
1558607355.7,286046999.3,N
1558607375.6,286047000.6,N
1558607395.4,286046999.8,N
1558607415.2,286047003.8,N
1558607435.1,286047003.0,N
1558607436.0,286047003.0,N
1558607455.8,286047004.2,N
1558607475.7,286047003.9,N
1558607495.5,286047002.4,N
1558607515.3,286047001.6,N
1558607535.2,286047002.6,N
1558607555.0,286047001.4,N
1558607555.9,286047001.4,N
1558607575.7,286047003.1,N
1558607595.6,286047003.6,N
1558607615.4,286047003.0,N
1558607635.3,286047005.6,Y
1558607655.1,286047003.6,P
1558607656.0,286047003.6,P
1558607675.8,286047001.8,N
1558607695.7,286047002.5,N
1558607715.5,286047002.6,N
1558607735.3,286047000.7,N
1558607755.2,286047002.4,N
1558607775.0,286047002.7,N
1558607775.9,286047002.7,N
1558607795.8,286047004.1,Y
1558607815.6,286047002.7,P
1558607835.4,286046998.5,P
1558607855.3,286046999.5,N
1558607875.1,286046997.5,N
1558607895.9,286046995.0,N
1558607915.7,286046999.6,N
1558607935.5,286046997.7,N
1558607955.4,286046997.3,N
1558607975.2,286046999.5,N
1558607995.9,286046996.7,N
1558608015.7,286046997.2,N
1558608035.5,286046997.5,N
1558608055.4,286046997.1,N
1558608075.2,286046997.9,N
1558608095.0,286046995.1,N
1558608095.9,286046995.1,N
1558608115.8,286046996.4,N
1558608135.6,286046995.6,N
1558608155.5,286046993.3,Y
1558608175.3,286046999.4,P
1558608195.1,286046997.9,N
1558608215.9,286046995.0,P
1558608235.7,286046996.3,N
1558608255.6,286046994.1,Y
1558608275.4,286046997.8,P
1558608295.2,286046997.0,P
1558608315.1,286046996.9,P
1558608316.0,286046996.9,Y
1558608335.8,286046999.8,P
1558608355.6,286047004.3,P
1558608375.5,286047004.2,N
1558608395.3,286047001.6,N
1558608415.2,286047004.2,N
1558608435.9,286047002.0,N
1558608455.7,286047001.2,N
1558608475.6,286046998.6,N
1558608495.4,286047002.8,N
1558608515.2,286047000.0,N
1558608535.1,286047002.5,N
1558608536.0,286047002.5,N
1558608555.8,286047002.6,N
1558608575.7,286047002.6,N
1558608595.5,286047000.9,N
1558608615.3,286047002.7,N
1558608635.2,286047000.4,N
1558608655.0,286047002.5,N
1558608655.9,286047002.5,N
1558608675.8,286047000.4,N
1558608695.6,286046999.1,N
1558608715.4,286046999.4,N
1558608735.3,286046999.3,N
1558608755.1,286046999.5,N
1558608756.0,286046999.5,N
1558608775.8,286046998.8,N
1558608795.7,286047000.8,N
1558608815.5,286046999.2,N
1558608835.3,286046999.2,N
1558608855.2,286046997.7,N
1558608875.0,286046996.9,N
1558608875.9,286046996.9,N
1558608895.8,286046996.7,N
1558608915.6,286046998.4,N
1558608935.4,286046997.7,N
1558608955.3,286046996.8,N
1558608975.1,286046997.9,N
1558608995.8,286046997.6,N
1558609015.7,286046996.8,N
1558609035.2,286046998.8,N
1558609055.1,286047000.8,N
1558609056.0,286047000.8,N
1558609075.8,286046999.6,N
1558609095.6,286047001.1,N
1558609115.5,286046999.5,N
1558609135.3,286046998.7,N
1558609155.2,286047001.0,N
1558609175.9,286047002.8,N
1558609195.7,286046999.9,N
